ONEWEB-0290 (49080 NORAD) Tracking and Keplerian Element Data

This shows tracking and keplerian element data for the satellite.

Feedback or suggestion? Click here.




ElementValue
Catalog49080
NameONEWEB-0290
Epoch Orbit1131
Epoch Day300.83334491
Epoch Year2021
RAAN344.322
Inclination87.5761
Eccentricity0.0024977
Argument of Perigee68.6936
Mean Anonmoly21.3933
Mean Motion14.34441571
Decay Rate-0.01444024
L11 49080U 21075F 21300.83334491 -.01444024 00000-0 -54769+0 0 9998
L22 49080 87.5761 344.3220 0024977 68.6936 21.3933 14.34441571 11313

Live tracking and technical data element details for ONEWEB-0290 (NORAD 49080). ONEWEB-0290 can be tracked NOW for your location showing map with azimuth and elevation plus other details from your city location.

Track the satellite on the map from your city or location and see movement details for azimuth, elevation, latitude, longitude, range, height, and movement on the map or in text.







IsCatalogInMostPopularTable: catalog: 49080, numindb: 23
Update: records affected: 1



GetName: 49080 ONEWEB-0290

Hit Count: updated at: Thu, 28 Oct 2021 10:26:33 GMT